This is the latest recevied weather packets stored in our database for station/object N3TUQ-2. If no packets are shown the sender has not sent any weather packets the latest 1 day(s).
| Time | Temp. | Humidity | Pressure | Rain* | Wind** | Luminosity | Snow |
|---|---|---|---|---|---|---|---|
| 1778054059 | 12.78° C | 89% | 1005.2 hPa | 0.51 mm | - | - | - |
| 1778049379 | 12.78° C | 93% | 1004.7 hPa | 0 mm | - | - | - |
| 1778048599 | 12.78° C | 93% | 1004.8 hPa | 0 mm | - | - | - |
| 1778047039 | 12.78° C | 92% | 1005.3 hPa | 0 mm | - | - | - |
| 1778046259 | 12.78° C | 91% | 1005.5 hPa | 0 mm | - | - | - |
| 1778045479 | 12.78° C | 91% | 1005.7 hPa | 0 mm | - | - | - |
| 1778044699 | 12.78° C | 91% | 1005.8 hPa | 0 mm | - | - | - |
| 1778043919 | 12.78° C | 91% | 1006 hPa | 0 mm | - | - | - |
| 1778042358 | 13.33° C | 91% | 1006.1 hPa | 0 mm | - | - | - |
| 1778041579 | 13.33° C | 91% | 1006 hPa | 0 mm | - | - | - |
| 1778040799 | 13.33° C | 89% | 1006 hPa | 0 mm | - | - | - |
| 1778040019 | 13.33° C | 88% | 1005.8 hPa | 0 mm | - | - | - |
| 1778039239 | 13.89° C | 87% | 1005.9 hPa | 0 mm | - | - | - |
| 1778036898 | 14.44° C | 85% | 1006.2 hPa | 0 mm | - | - | - |
| 1778036119 | 14.44° C | 87% | 1006.2 hPa | 0 mm | - | - | - |
| 1778035339 | 14.44° C | 83% | 1006.1 hPa | 0 mm | - | - | - |
| 1778034559 | 15° C | 85% | 1006.3 hPa | 0 mm | - | - | - |
| 1778033778 | 15° C | 83% | 1006.3 hPa | 0 mm | - | - | - |
| 1778032218 | 15° C | 81% | 1006.1 hPa | 0 mm | - | - | - |
| 1778031438 | 14.44° C | 83% | 1006.1 hPa | 0 mm | - | - | - |
| 1778030659 | 15° C | 81% | 1006.1 hPa | 0 mm | - | - | - |
| 1778029879 | 14.44° C | 84% | 1005.9 hPa | 0 mm | - | - | - |
| 1778029099 | 15° C | 86% | 1005.8 hPa | 0 mm | - | - | - |
| 1778026758 | 16.11° C | 82% | 1005.5 hPa | 0 mm | - | - | - |
| 1778025978 | 16.67° C | 74% | 1005.1 hPa | 0 mm | - | - | - |
* Rain latest hour (hover to see other rain measurements)
** Current wind speed in m/s (hover to see current wind gust speed)